Greybull, WY

11:16 AM MST on December 05, 2019 (GMT -0700)
South Big Horn County

Weather History for KGEY - October, 2019

Change the Weather History Date:

Sunday, October 27, 2019

  Actual Average Record
Temperature  
Mean Temperature 22 °F 42 °F  
Max Temperature 28 °F 55 °F 74 °F (1988)
Min Temperature 14 °F 28 °F 20 °F (2008)
Degree Days  
Heating Degree Days 44 23  
Month to date heating degree days 637 491  
Since 1 July heating degree days 812 722  
Cooling Degree Days 0 0  
Month to date cooling degree days 0 0  
Year to date cooling degree days 733 669  
Moisture  
Dew Point 8 °F    
Average Humidity 51    
Maximum Humidity 81    
Minimum Humidity 31    
Precipitation  
Precipitation 0.00 in 0.01 in 0.04 in (2003)
Month to date precipitation 0.61 0.56  
Year to date precipitation 7.93 6.89  
Sea Level Pressure  
Sea Level Pressure 30.32 in    
Wind  
Wind Speed 16 mph ()    
Max Wind Speed 29 mph    
Max Gust Speed 41 mph    
Visibility 10.0 miles    
Events      
T = Trace of Precipitation, MM = Missing Value Source: Averaged Metar Reports

Daily Weather History Graph

Daily Weather History Graph

Search for Another Location

Airport or City:

Astronomy

Oct. 27, 2019 Rise Set
Actual Time 7:42 AM MDT 6:08 PM MDT
Civil Twilight 7:12 AM MDT 6:38 PM MDT
Nautical Twilight 6:38 AM MDT 7:12 PM MDT
Astronomical Twilight 6:05 AM MDT 7:46 PM MDT
Moon 6:51 AM MDT (10/27) 6:22 PM MDT (10/27)
Length of Visible Light 11h 25m
Length of Day
10h 25m
Waning Crescent, 0% of the Moon is Illuminated
Oct 27
Waning Crescent
Oct 27
New
Nov 4
First Quarter
Nov 12
Full
Nov 19
Last Quarter

Hourly Weather History & Observations

Time (MDT) Temp. Windchill Dew Point Humidity Pressure Visibility Wind Dir Wind Speed Gust Speed Precip Events Conditions
12:53 AM 28.0 °F 15.7 °F 21.0 °F 75% 30.22 in 10.0 mi NW 17.3 mph 29.9 mph N/A   Overcast
1:53 AM 27.0 °F 12.8 °F 21.0 °F 78% 30.23 in 10.0 mi NNW 21.9 mph 35.7 mph N/A   Overcast
2:53 AM 26.1 °F 12.0 °F 14.0 °F 60% 30.24 in 10.0 mi NNW 20.7 mph 31.1 mph N/A   Mostly Cloudy
3:53 AM 26.1 °F 11.3 °F 12.0 °F 55% 30.23 in 10.0 mi North 23.0 mph 33.4 mph N/A   Overcast
4:53 AM 25.0 °F 8.9 °F 10.0 °F 53% 30.26 in 10.0 mi NNW 26.5 mph 36.8 mph N/A   Overcast
5:53 AM 24.1 °F 8.7 °F 10.0 °F 55% 30.28 in 10.0 mi NNW 23.0 mph 32.2 mph N/A   Mostly Cloudy
6:53 AM 24.1 °F 8.7 °F 6.1 °F 46% 30.30 in 10.0 mi NNW 23.0 mph 34.5 mph N/A   Overcast
7:53 AM 23.0 °F 7.2 °F 6.1 °F 48% 30.33 in 10.0 mi NNW 23.0 mph 29.9 mph N/A   Overcast
8:53 AM 21.9 °F 5.8 °F 5.0 °F 48% 30.35 in 10.0 mi NNW 23.0 mph 33.4 mph N/A   Overcast
9:53 AM 23.0 °F 7.6 °F 3.9 °F 44% 30.38 in 10.0 mi NNW 21.9 mph 32.2 mph N/A   Mostly Cloudy
10:53 AM 25.0 °F 10.2 °F 5.0 °F 43% 30.37 in 10.0 mi North 21.9 mph 29.9 mph N/A   Clear
11:53 AM 26.1 °F 13.1 °F 5.0 °F 41% 30.36 in 10.0 mi NNW 17.3 mph 32.2 mph N/A   Clear
12:53 PM 27.0 °F 14.3 °F 5.0 °F 39% 30.35 in 10.0 mi North 17.3 mph 27.6 mph N/A   Clear
1:53 PM 27.0 °F 16.1 °F 3.9 °F 37% 30.33 in 10.0 mi NNW 12.7 mph 24.2 mph N/A   Clear
2:53 PM 28.0 °F 15.7 °F 3.0 °F 34% 30.32 in 10.0 mi NNW 17.3 mph - N/A   Clear
3:53 PM 28.9 °F 17.3 °F 1.9 °F 32% 30.31 in 10.0 mi NNW 16.1 mph 29.9 mph N/A   Clear
4:53 PM 27.0 °F 13.9 °F 3.0 °F 36% 30.32 in 10.0 mi NNW 18.4 mph 26.5 mph N/A   Clear
5:53 PM 25.0 °F 12.6 °F 3.0 °F 39% 30.31 in 10.0 mi NNW 15.0 mph - N/A   Clear
6:53 PM 24.1 °F 14.4 °F 5.0 °F 44% 30.33 in 10.0 mi NNW 9.2 mph - N/A   Clear
7:53 PM 21.9 °F 11.0 °F 8.1 °F 55% 30.35 in 10.0 mi WNW 10.4 mph - N/A   Clear
9:53 PM 18.0 °F 12.7 °F 8.1 °F 65% 30.37 in 10.0 mi NW 3.5 mph - N/A   Clear
10:53 PM 17.1 °F 6.6 °F 7.0 °F 65% 30.37 in 10.0 mi NNW 8.1 mph - N/A   Clear
11:53 PM 14.0 °F 8.2 °F 7.0 °F 74% 30.36 in 10.0 mi West 3.5 mph - N/A   Clear